Flag for U.S.A. Weather past 2 weeks in San Jose, California, U.S.A.

Now
53 °F

Clear.


Feels Like: 52 °F
Forecast: 52 / 69 °F
Wind: 5 mph from Northwest

Location: San Jose International Airport


UV Index: 0 (Low)

Visibility: 10 mi


Pressure: 30.11 "Hg

Humidity: 83%

Dew point: 48 °F

Location of San JoseLocation

Historic Weather in San Jose

°F

San Jose temperature yesterday

Maximum temperature yesterday: 66 °F (at 2:53 PM)
Minimum temperature yesterday: 49 °F (at 2:53 AM)
Average temperature yesterday: 57 °F

Past Weeks' High & Low Weather Summary

 TemperatureHumidityPressure
High80 °F (Apr 20, 2:53 PM)93% (Apr 9, 5:53 AM)30.15 "Hg (Apr 9, 5:53 AM)
Low49 °F (Apr 23, 2:53 AM)22% (Apr 20, 3:53 PM)29.80 "Hg (Apr 17, 5:53 AM)
Average60 °F65%29.99 "Hg
* Reported Apr 9 1:53 AM — Apr 24 1:53 AM, San Jose, Weather by CustomWeather, © 2014

Note: Actual official high and low records may vary slightly from our data, if they occured in-between our weather recording intervals... More about our weather records

Advertising

Historic Weather Conditions — Data for Previous 24 hours

 ConditionsComfort  
Time TempWeatherWind HumidityBarometerVisibility
1:53 AM
Apr 24
53 °FClear.5 mph83%30.11 "Hg10 mi
12:53 AM54 °FClear.No wind80%30.10 "Hg10 mi
11:53 PM
Apr 23
54 °FPassing clouds.3 mph80%30.11 "Hg10 mi
10:53 PM56 °FPassing clouds.9 mph75%30.12 "Hg10 mi
9:53 PM56 °FPassing clouds.6 mph72%30.12 "Hg10 mi
8:53 PM57 °FPassing clouds.8 mph64%30.11 "Hg10 mi
7:53 PM59 °FScattered clouds.14 mph56%30.10 "Hg10 mi
6:53 PM62 °FScattered clouds.16 mph48%30.09 "Hg10 mi
5:53 PM65 °FScattered clouds.14 mph40%30.09 "Hg10 mi
4:53 PM65 °FScattered clouds.13 mph42%30.09 "Hg10 mi
3:53 PM66 °FScattered clouds.15 mph37%30.09 "Hg10 mi
2:53 PM66 °FScattered clouds.16 mph34%30.11 "Hg10 mi
1:53 PM65 °FBroken clouds.16 mph39%30.12 "Hg10 mi
12:53 PM63 °FMostly cloudy.14 mph35%30.13 "Hg10 mi
11:53 AM62 °FMostly cloudy.12 mph37%30.14 "Hg10 mi
10:53 AM59 °FBroken clouds.8 mph48%30.15 "Hg10 mi
9:53 AM57 °FBroken clouds.8 mph51%30.15 "Hg10 mi
8:53 AM55 °FScattered clouds.3 mph59%30.14 "Hg10 mi
7:53 AM52 °FScattered clouds.No wind64%30.14 "Hg10 mi
6:53 AM49 °FPartly cloudy.No wind66%30.13 "Hg10 mi
5:53 AM49 °FPassing clouds.No wind69%30.12 "Hg10 mi
4:53 AM49 °FClear.No wind64%30.11 "Hg10 mi
3:53 AM50 °FClear.7 mph63%30.11 "Hg10 mi
2:53 AM49 °FClear.5 mph69%30.11 "Hg10 mi
Weather by CustomWeather, © 2014

See weather overview